Check out our new BloomSky Weather System.

Active alerts


No alerts


Thunder radar  blitzortung!


Rain radar more information rain snow radar


Visit our other weather sites:

Template documentation
and downloads

And another site



Weather Underground History page Text

Daily Summary for March 5, 2017 Units:  English    Metric   Both
« Previous Day
Next Day »
Daily Weekly Monthly Yearly Custom
  High: Low: Average:
Temperature: 69.6 °F 58.8 °F 64.5 °F
Dew Point: 67.6 °F 57.2 °F 63.2 °F
Humidity: 98 % 89 % 96 %
Wind Speed: 15.0 mph 0.0 mph 3.6 mph
Wind Gust: 17.0 mph - -
Wind:- - ESE
Pressure: 30.23 in 30.05 in -
Precipitation: 0.68 in    
Historical Graphs
 
 
Tabular Data for March 5, 2017
Time Temperature Dew Point Pressure Wind Wind Speed Wind Gust Humidity Rainfall Rate (Hourly)
00:03 59.5 °F 57.2 °F 30.22 in ESE 4.0 mph 9.0 mph 92 % 0.00 in
00:08 59.5 °F 57.2 °F 30.22 in East 2.0 mph 8.0 mph 92 % 0.00 in
00:13 59.5 °F 57.2 °F 30.22 in ESE 4.0 mph 9.0 mph 92 % 0.00 in
00:18 59.7 °F 57.4 °F 30.21 in SE 5.0 mph 9.0 mph 92 % 0.00 in
00:23 59.7 °F 57.4 °F 30.21 in East 2.0 mph 9.0 mph 92 % 0.00 in
00:28 59.7 °F 57.4 °F 30.21 in East 2.0 mph 7.0 mph 92 % 0.00 in
00:33 59.7 °F 57.4 °F 30.21 in ENE 4.0 mph 7.0 mph 92 % 0.00 in
00:38 59.7 °F 57.4 °F 30.22 in SE 4.0 mph 7.0 mph 92 % 0.00 in
00:43 59.7 °F 57.4 °F 30.22 in East 3.0 mph 7.0 mph 92 % 0.00 in
00:49 59.9 °F 57.6 °F 30.22 in Calm   7.0 mph 92 % 0.00 in
00:54 59.9 °F 57.6 °F 30.22 in Calm   7.0 mph 92 % 0.00 in
00:59 59.7 °F 57.4 °F 30.22 in SE 1.0 mph 6.0 mph 92 % 0.00 in
01:04 59.7 °F 57.4 °F 30.23 in Calm   6.0 mph 92 % 0.00 in
01:09 59.7 °F 57.4 °F 30.23 in ENE 1.0 mph 3.0 mph 92 % 0.00 in
01:14 59.7 °F 57.4 °F 30.23 in Calm   4.0 mph 92 % 0.00 in
01:19 59.7 °F 57.4 °F 30.22 in ENE 3.0 mph 4.0 mph 92 % 0.00 in
01:24 59.7 °F 57.4 °F 30.23 in ESE 2.0 mph 4.0 mph 92 % 0.00 in
01:29 59.7 °F 57.4 °F 30.23 in ESE 1.0 mph 4.0 mph 92 % 0.00 in
01:34 59.7 °F 57.4 °F 30.23 in Calm   4.0 mph 92 % 0.00 in
01:39 59.7 °F 57.4 °F 30.22 in Calm   3.0 mph 92 % 0.00 in
01:44 59.7 °F 57.4 °F 30.22 in Calm   3.0 mph 92 % 0.00 in
01:49 59.7 °F 57.4 °F 30.22 in NNE 1.0 mph 3.0 mph 92 % 0.00 in
01:54 59.5 °F 57.2 °F 30.22 in Calm   3.0 mph 92 % 0.00 in
01:59 59.5 °F 57.2 °F 30.21 in NE 1.0 mph 2.0 mph 92 % 0.00 in
02:04 59.4 °F 57.4 °F 30.21 in ENE 2.0 mph 3.0 mph 93 % 0.00 in
02:09 59.4 °F 57.4 °F 30.20 in Calm   3.0 mph 93 % 0.00 in
02:14 59.4 °F 57.4 °F 30.20 in ESE 1.0 mph 3.0 mph 93 % 0.00 in
02:19 59.4 °F 57.4 °F 30.20 in ENE 2.0 mph 4.0 mph 93 % 0.00 in
02:24 59.2 °F 57.2 °F 30.20 in Calm   4.0 mph 93 % 0.00 in
02:29 59.2 °F 57.2 °F 30.19 in East 2.0 mph 4.0 mph 93 % 0.00 in
02:34 59.2 °F 57.2 °F 30.19 in ENE 1.0 mph 4.0 mph 93 % 0.00 in
02:39 59.2 °F 57.2 °F 30.19 in Calm   4.0 mph 93 % 0.00 in
02:44 59.2 °F 57.4 °F 30.19 in NE 2.0 mph 4.0 mph 94 % 0.00 in
02:49 59.2 °F 57.4 °F 30.19 in Calm   6.0 mph 94 % 0.00 in
02:54 59.2 °F 57.4 °F 30.19 in East 2.0 mph 6.0 mph 94 % 0.00 in
02:59 59.2 °F 57.4 °F 30.18 in East 3.0 mph 6.0 mph 94 % 0.00 in
03:04 59.2 °F 57.4 °F 30.18 in ENE 2.0 mph 6.0 mph 94 % 0.00 in
03:09 59.0 °F 57.2 °F 30.18 in East 4.0 mph 6.0 mph 94 % 0.00 in
03:14 59.0 °F 57.6 °F 30.18 in SE 1.0 mph 6.0 mph 95 % 0.00 in
03:19 59.0 °F 57.6 °F 30.18 in Calm   5.0 mph 95 % 0.00 in
03:24 59.0 °F 57.6 °F 30.18 in ENE 1.0 mph 5.0 mph 95 % 0.01 in
03:29 58.8 °F 57.4 °F 30.18 in Calm   4.0 mph 95 % 0.01 in
03:34 59.0 °F 57.6 °F 30.17 in NW 1.0 mph 4.0 mph 95 % 0.01 in
03:39 59.0 °F 57.6 °F 30.17 in Calm   4.0 mph 95 % 0.01 in
03:44 59.0 °F 57.9 °F 30.17 in East 1.0 mph 5.0 mph 96 % 0.01 in
03:49 59.0 °F 57.9 °F 30.17 in ESE 2.0 mph 5.0 mph 96 % 0.01 in
03:54 59.0 °F 57.9 °F 30.17 in East 1.0 mph 5.0 mph 96 % 0.02 in
04:00 59.2 °F 58.1 °F 30.17 in Calm   5.0 mph 96 % 0.02 in
04:05 59.2 °F 58.1 °F 30.17 in East 2.0 mph 5.0 mph 96 % 0.02 in
04:10 59.2 °F 58.1 °F 30.16 in SE 2.0 mph 5.0 mph 96 % 0.03 in
04:15 59.2 °F 58.1 °F 30.16 in East 1.0 mph 5.0 mph 96 % 0.04 in
04:20 59.2 °F 58.1 °F 30.16 in East 1.0 mph 6.0 mph 96 % 0.04 in
04:25 59.4 °F 58.3 °F 30.16 in NE 2.0 mph 6.0 mph 96 % 0.04 in
04:30 59.4 °F 58.5 °F 30.16 in ENE 2.0 mph 5.0 mph 97 % 0.04 in
04:35 59.4 °F 58.5 °F 30.15 in SE 3.0 mph 5.0 mph 97 % 0.04 in
04:40 59.5 °F 58.6 °F 30.16 in ESE 2.0 mph 5.0 mph 97 % 0.04 in
04:45 59.5 °F 58.6 °F 30.15 in East 2.0 mph 5.0 mph 97 % 0.03 in
04:50 59.5 °F 58.6 °F 30.16 in ESE 1.0 mph 6.0 mph 97 % 0.03 in
04:55 59.7 °F 58.8 °F 30.16 in ESE 1.0 mph 6.0 mph 97 % 0.03 in
05:00 59.7 °F 58.8 °F 30.16 in ENE 4.0 mph 6.0 mph 97 % 0.03 in
05:05 59.7 °F 58.8 °F 30.16 in East 1.0 mph 6.0 mph 97 % 0.02 in
05:06 59.7 °F 58.8 °F 30.16 in East 1.0 mph 6.0 mph 97 % 0.02 in
05:11 59.7 °F 58.8 °F 30.16 in East 1.0 mph 6.0 mph 97 % 0.01 in
05:16 59.9 °F 59.0 °F 30.16 in ESE 1.0 mph 6.0 mph 97 % 0.02 in
05:21 59.9 °F 59.0 °F 30.16 in East 1.0 mph 5.0 mph 97 % 0.01 in
05:26 59.9 °F 59.0 °F 30.16 in Calm   10.0 mph 97 % 0.01 in
05:31 60.1 °F 59.2 °F 30.16 in East 3.0 mph 10.0 mph 97 % 0.01 in
05:36 60.1 °F 59.2 °F 30.15 in East 2.0 mph 10.0 mph 97 % 0.01 in
05:41 60.1 °F 59.2 °F 30.15 in SSE 2.0 mph 10.0 mph 97 % 0.01 in
05:46 60.1 °F 59.2 °F 30.15 in East 2.0 mph 10.0 mph 97 % 0.01 in
05:51 60.1 °F 59.2 °F 30.16 in East 3.0 mph 10.0 mph 97 % 0.01 in
05:56 60.3 °F 59.4 °F 30.15 in East 1.0 mph 7.0 mph 97 % 0.01 in
06:01 60.3 °F 59.4 °F 30.15 in East 2.0 mph 7.0 mph 97 % 0.01 in
06:06 60.3 °F 59.4 °F 30.15 in East 2.0 mph 7.0 mph 97 % 0.01 in
06:11 60.3 °F 59.4 °F 30.15 in ENE 1.0 mph 9.0 mph 97 % 0.01 in
06:16 60.3 °F 59.7 °F 30.15 in NW 1.0 mph 9.0 mph 98 % 0.00 in
06:21 60.4 °F 59.9 °F 30.15 in East 4.0 mph 9.0 mph 98 % 0.00 in
06:26 60.4 °F 59.9 °F 30.16 in ENE 2.0 mph 7.0 mph 98 % 0.00 in
06:31 60.4 °F 59.9 °F 30.16 in ENE 4.0 mph 6.0 mph 98 % 0.00 in
06:36 60.4 °F 59.9 °F 30.16 in SE 2.0 mph 7.0 mph 98 % 0.00 in
06:41 60.4 °F 59.9 °F 30.16 in ENE 5.0 mph 7.0 mph 98 % 0.00 in
06:46 60.4 °F 59.9 °F 30.16 in SSE 1.0 mph 7.0 mph 98 % 0.00 in
06:51 60.4 °F 59.9 °F 30.17 in East 2.0 mph 7.0 mph 98 % 0.00 in
06:56 60.4 °F 59.9 °F 30.17 in East 3.0 mph 8.0 mph 98 % 0.00 in
07:01 60.6 °F 60.1 °F 30.17 in ESE 3.0 mph 8.0 mph 98 % 0.00 in
07:06 60.6 °F 60.1 °F 30.17 in SE 3.0 mph 8.0 mph 98 % 0.00 in
07:11 60.6 °F 60.1 °F 30.17 in ENE 3.0 mph 6.0 mph 98 % 0.00 in
07:16 60.6 °F 60.1 °F 30.17 in SE 2.0 mph 6.0 mph 98 % 0.00 in
07:21 60.8 °F 60.3 °F 30.17 in ESE 2.0 mph 6.0 mph 98 % 0.00 in
07:26 60.8 °F 60.3 °F 30.17 in SE 2.0 mph 6.0 mph 98 % 0.00 in
07:31 61.0 °F 60.4 °F 30.17 in ESE 2.0 mph 6.0 mph 98 % 0.00 in
07:36 61.0 °F 60.4 °F 30.17 in SE 1.0 mph 6.0 mph 98 % 0.00 in
07:41 61.0 °F 60.4 °F 30.17 in ENE 2.0 mph 9.0 mph 98 % 0.00 in
07:46 61.0 °F 60.4 °F 30.17 in ESE 3.0 mph 9.0 mph 98 % 0.00 in
07:51 61.2 °F 60.6 °F 30.17 in SE 3.0 mph 9.0 mph 98 % 0.00 in
07:56 61.2 °F 60.6 °F 30.17 in Calm   6.0 mph 98 % 0.00 in
08:01 61.2 °F 60.6 °F 30.18 in SE 2.0 mph 7.0 mph 98 % 0.00 in
08:06 61.2 °F 60.6 °F 30.18 in ESE 1.0 mph 8.0 mph 98 % 0.00 in
08:11 61.3 °F 60.8 °F 30.18 in ESE 2.0 mph 8.0 mph 98 % 0.01 in
08:16 61.3 °F 60.8 °F 30.18 in East 2.0 mph 8.0 mph 98 % 0.01 in
08:21 61.3 °F 60.8 °F 30.18 in East 2.0 mph 8.0 mph 98 % 0.01 in
08:26 61.3 °F 60.8 °F 30.18 in Calm   8.0 mph 98 % 0.01 in
08:31 61.3 °F 60.8 °F 30.18 in ESE 4.0 mph 7.0 mph 98 % 0.02 in
08:36 61.3 °F 60.8 °F 30.18 in ESE 4.0 mph 7.0 mph 98 % 0.02 in
08:41 61.5 °F 61.0 °F 30.17 in ENE 3.0 mph 7.0 mph 98 % 0.03 in
08:46 61.5 °F 61.0 °F 30.16 in ESE 4.0 mph 7.0 mph 98 % 0.03 in
08:49 61.5 °F 61.0 °F 30.17 in ENE 5.0 mph 7.0 mph 98 % 0.03 in
08:54 61.7 °F 61.2 °F 30.17 in ESE 1.0 mph 8.0 mph 98 % 0.04 in
09:00 61.9 °F 61.3 °F 30.16 in ESE 6.0 mph 8.0 mph 98 % 0.05 in
09:04 62.1 °F 61.5 °F 30.16 in ESE 4.0 mph 8.0 mph 98 % 0.06 in
09:10 62.2 °F 61.7 °F 30.16 in ESE 3.0 mph 11.0 mph 98 % 0.06 in
09:15 62.6 °F 62.1 °F 30.16 in ESE 4.0 mph 11.0 mph 98 % 0.07 in
09:20 62.8 °F 62.2 °F 30.16 in ESE 3.0 mph 11.0 mph 98 % 0.09 in
09:25 63.0 °F 62.4 °F 30.16 in East 4.0 mph 11.0 mph 98 % 0.10 in
09:30 63.1 °F 62.6 °F 30.16 in SW 1.0 mph 11.0 mph 98 % 0.11 in
09:35 63.3 °F 62.8 °F 30.16 in East 2.0 mph 11.0 mph 98 % 0.10 in
09:40 63.3 °F 62.8 °F 30.16 in East 3.0 mph 11.0 mph 98 % 0.09 in
09:45 63.5 °F 63.0 °F 30.17 in SSE 1.0 mph 11.0 mph 98 % 0.10 in
09:50 63.7 °F 63.1 °F 30.17 in ESE 4.0 mph 10.0 mph 98 % 0.09 in
09:55 63.7 °F 63.1 °F 30.17 in SW 1.0 mph 10.0 mph 98 % 0.08 in
10:00 63.9 °F 63.3 °F 30.18 in SE 2.0 mph 10.0 mph 98 % 0.07 in
10:05 63.9 °F 63.3 °F 30.18 in ESE 1.0 mph 9.0 mph 98 % 0.07 in
10:10 63.9 °F 63.3 °F 30.18 in SSE 3.0 mph 8.0 mph 98 % 0.06 in
10:15 64.0 °F 63.5 °F 30.18 in SE 1.0 mph 8.0 mph 98 % 0.04 in
10:20 64.0 °F 63.5 °F 30.18 in ESE 2.0 mph 7.0 mph 98 % 0.03 in
10:25 64.2 °F 63.7 °F 30.18 in Calm   7.0 mph 98 % 0.02 in
10:30 64.2 °F 63.7 °F 30.18 in SE 1.0 mph 8.0 mph 98 % 0.02 in
10:35 64.6 °F 64.0 °F 30.18 in ESE 2.0 mph 9.0 mph 98 % 0.02 in
10:40 64.8 °F 64.2 °F 30.18 in ESE 4.0 mph 9.0 mph 98 % 0.02 in
10:45 64.9 °F 64.4 °F 30.18 in ESE 3.0 mph 9.0 mph 98 % 0.01 in
10:50 65.1 °F 64.6 °F 30.17 in ESE 3.0 mph 9.0 mph 98 % 0.02 in
10:55 65.5 °F 64.9 °F 30.17 in ESE 3.0 mph 9.0 mph 98 % 0.02 in
11:00 65.8 °F 65.3 °F 30.17 in ESE 3.0 mph 9.0 mph 98 % 0.02 in
11:05 66.0 °F 65.5 °F 30.17 in SSE 3.0 mph 9.0 mph 98 % 0.01 in
11:10 66.6 °F 66.0 °F 30.16 in South 1.0 mph 8.0 mph 98 % 0.01 in
11:15 66.7 °F 65.8 °F 30.17 in SE 3.0 mph 9.0 mph 97 % 0.01 in
11:20 66.9 °F 66.0 °F 30.17 in ESE 4.0 mph 9.0 mph 97 % 0.01 in
11:25 66.9 °F 66.0 °F 30.17 in ESE 7.0 mph 11.0 mph 97 % 0.01 in
11:30 67.3 °F 66.4 °F 30.17 in ESE 11.0 mph 12.0 mph 97 % 0.01 in
11:35 67.5 °F 66.2 °F 30.16 in ESE 3.0 mph 12.0 mph 96 % 0.01 in
11:40 67.8 °F 66.6 °F 30.16 in ESE 13.0 mph 13.0 mph 96 % 0.01 in
11:45 67.8 °F 66.4 °F 30.16 in SE 8.0 mph 13.0 mph 95 % 0.01 in
11:50 68.2 °F 66.7 °F 30.16 in SE 5.0 mph 13.0 mph 95 % 0.00 in
11:55 68.4 °F 66.6 °F 30.16 in SE 8.0 mph 13.0 mph 94 % 0.00 in
12:00 68.4 °F 66.2 °F 30.16 in SE 6.0 mph 13.0 mph 93 % 0.00 in
12:05 68.4 °F 66.2 °F 30.16 in SE 10.0 mph 14.0 mph 93 % 0.00 in
12:10 68.5 °F 66.4 °F 30.15 in East 7.0 mph 14.0 mph 93 % 0.00 in
12:15 68.7 °F 66.4 °F 30.15 in ESE 8.0 mph 14.0 mph 92 % 0.00 in
12:20 69.1 °F 66.9 °F 30.15 in SW 6.0 mph 14.0 mph 93 % 0.00 in
12:25 69.3 °F 66.9 °F 30.14 in SSE 6.0 mph 14.0 mph 92 % 0.00 in
12:30 69.4 °F 66.7 °F 30.14 in ESE 15.0 mph 15.0 mph 91 % 0.00 in
12:35 69.4 °F 66.7 °F 30.13 in South 5.0 mph 17.0 mph 91 % 0.00 in
12:40 69.4 °F 66.4 °F 30.13 in East 3.0 mph 17.0 mph 90 % 0.00 in
12:45 69.4 °F 66.7 °F 30.13 in SSE 3.0 mph 17.0 mph 91 % 0.00 in
12:50 69.4 °F 66.4 °F 30.13 in SSE 13.0 mph 15.0 mph 90 % 0.00 in
12:55 69.3 °F 66.2 °F 30.13 in SSE 10.0 mph 15.0 mph 90 % 0.00 in
13:00 69.4 °F 66.4 °F 30.12 in South 8.0 mph 15.0 mph 90 % 0.00 in
13:05 69.4 °F 66.4 °F 30.12 in SE 6.0 mph 13.0 mph 90 % 0.00 in
13:10 69.4 °F 66.0 °F 30.12 in ESE 8.0 mph 15.0 mph 89 % 0.00 in
13:15 69.4 °F 66.0 °F 30.12 in ESE 8.0 mph 15.0 mph 89 % 0.00 in
13:20 69.6 °F 66.2 °F 30.12 in SE 9.0 mph 15.0 mph 89 % 0.00 in
13:25 69.4 °F 66.0 °F 30.11 in SSE 7.0 mph 16.0 mph 89 % 0.00 in
13:30 69.3 °F 65.8 °F 30.11 in ENE 4.0 mph 16.0 mph 89 % 0.00 in
13:35 69.1 °F 65.7 °F 30.11 in East 5.0 mph 16.0 mph 89 % 0.00 in
13:40 68.9 °F 65.8 °F 30.11 in ESE 9.0 mph 17.0 mph 90 % 0.00 in
13:45 68.7 °F 66.0 °F 30.10 in ESE 9.0 mph 17.0 mph 91 % 0.01 in
13:50 68.4 °F 66.0 °F 30.10 in SSE 3.0 mph 17.0 mph 92 % 0.01 in
13:55 68.2 °F 66.0 °F 30.10 in ESE 6.0 mph 14.0 mph 93 % 0.01 in
14:00 67.8 °F 66.0 °F 30.09 in East 4.0 mph 12.0 mph 94 % 0.02 in
14:05 67.8 °F 66.0 °F 30.09 in East 6.0 mph 12.0 mph 94 % 0.02 in
14:11 67.6 °F 66.2 °F 30.09 in South 8.0 mph 12.0 mph 95 % 0.02 in
14:15 67.8 °F 66.4 °F 30.08 in SE 4.0 mph 12.0 mph 95 % 0.02 in
14:21 67.8 °F 66.4 °F 30.08 in SE 5.0 mph 11.0 mph 95 % 0.02 in
14:26 67.8 °F 66.4 °F 30.08 in SE 3.0 mph 11.0 mph 95 % 0.02 in
14:31 68.0 °F 66.6 °F 30.08 in South 6.0 mph 12.0 mph 95 % 0.02 in
14:36 68.0 °F 66.6 °F 30.08 in SE 2.0 mph 12.0 mph 95 % 0.02 in
14:41 68.2 °F 66.7 °F 30.08 in SE 4.0 mph 12.0 mph 95 % 0.02 in
14:46 68.2 °F 66.7 °F 30.08 in SE 8.0 mph 12.0 mph 95 % 0.01 in
14:51 68.4 °F 66.9 °F 30.08 in SE 6.0 mph 12.0 mph 95 % 0.01 in
14:56 68.2 °F 66.4 °F 30.08 in East 5.0 mph 12.0 mph 94 % 0.01 in
15:01 68.2 °F 66.7 °F 30.08 in ESE 6.0 mph 12.0 mph 95 % 0.00 in
15:06 68.2 °F 66.4 °F 30.07 in ESE 9.0 mph 12.0 mph 94 % 0.00 in
15:11 68.2 °F 66.4 °F 30.07 in South 3.0 mph 12.0 mph 94 % 0.00 in
15:16 68.2 °F 66.4 °F 30.07 in ENE 7.0 mph 15.0 mph 94 % 0.00 in
15:21 68.4 °F 66.6 °F 30.07 in ESE 3.0 mph 15.0 mph 94 % 0.00 in
15:26 68.4 °F 66.6 °F 30.06 in SSE 3.0 mph 15.0 mph 94 % 0.00 in
15:31 68.4 °F 66.6 °F 30.06 in ESE 3.0 mph 11.0 mph 94 % 0.00 in
15:36 68.4 °F 66.6 °F 30.06 in SE 5.0 mph 11.0 mph 94 % 0.00 in
15:41 68.4 °F 66.6 °F 30.06 in SE 7.0 mph 11.0 mph 94 % 0.00 in
15:46 68.4 °F 66.6 °F 30.06 in SE 8.0 mph 12.0 mph 94 % 0.00 in
15:51 68.4 °F 66.6 °F 30.06 in SE 6.0 mph 12.0 mph 94 % 0.00 in
15:56 68.2 °F 66.4 °F 30.06 in East 4.0 mph 12.0 mph 94 % 0.00 in
16:01 68.2 °F 66.4 °F 30.06 in SE 6.0 mph 12.0 mph 94 % 0.00 in
16:06 68.0 °F 66.2 °F 30.06 in ESE 3.0 mph 12.0 mph 94 % 0.00 in
16:11 67.8 °F 66.4 °F 30.06 in SE 1.0 mph 12.0 mph 95 % 0.01 in
16:16 67.8 °F 66.4 °F 30.06 in SE 5.0 mph 12.0 mph 95 % 0.02 in
16:21 67.6 °F 66.2 °F 30.06 in ESE 5.0 mph 10.0 mph 95 % 0.02 in
16:26 67.5 °F 66.2 °F 30.06 in SSE 1.0 mph 7.0 mph 96 % 0.02 in
16:31 67.5 °F 66.2 °F 30.06 in SSE 3.0 mph 7.0 mph 96 % 0.02 in
16:37 67.3 °F 66.0 °F 30.06 in SE 5.0 mph 8.0 mph 96 % 0.02 in
16:42 67.3 °F 66.0 °F 30.05 in ESE 4.0 mph 9.0 mph 96 % 0.03 in
16:47 67.3 °F 66.4 °F 30.05 in East 3.0 mph 9.0 mph 97 % 0.04 in
16:52 67.3 °F 66.4 °F 30.06 in ESE 5.0 mph 11.0 mph 97 % 0.04 in
16:57 67.3 °F 66.4 °F 30.05 in ESE 1.0 mph 11.0 mph 97 % 0.04 in
17:02 67.3 °F 66.4 °F 30.05 in ESE 1.0 mph 11.0 mph 97 % 0.04 in
17:07 67.3 °F 66.4 °F 30.05 in ESE 4.0 mph 10.0 mph 97 % 0.04 in
17:12 67.5 °F 66.6 °F 30.05 in SE 3.0 mph 8.0 mph 97 % 0.03 in
17:17 67.5 °F 66.6 °F 30.05 in SE 3.0 mph 7.0 mph 97 % 0.02 in
17:22 67.3 °F 66.4 °F 30.05 in ESE 2.0 mph 7.0 mph 97 % 0.02 in
17:27 67.3 °F 66.4 °F 30.05 in SE 3.0 mph 7.0 mph 97 % 0.02 in
17:32 67.3 °F 66.4 °F 30.05 in ESE 3.0 mph 7.0 mph 97 % 0.02 in
17:37 67.3 °F 66.4 °F 30.05 in SE 4.0 mph 7.0 mph 97 % 0.02 in
17:42 67.1 °F 66.2 °F 30.05 in SE 4.0 mph 7.0 mph 97 % 0.01 in
17:47 67.1 °F 66.2 °F 30.05 in SSE 3.0 mph 8.0 mph 97 % 0.00 in
17:52 67.1 °F 66.2 °F 30.05 in ENE 3.0 mph 9.0 mph 97 % 0.00 in
17:57 67.1 °F 66.2 °F 30.05 in ESE 2.0 mph 10.0 mph 97 % 0.00 in
18:02 67.1 °F 66.2 °F 30.05 in SE 5.0 mph 10.0 mph 97 % 0.00 in
18:07 67.1 °F 66.2 °F 30.05 in ESE 2.0 mph 11.0 mph 97 % 0.00 in
18:12 67.1 °F 66.2 °F 30.05 in ESE 4.0 mph 13.0 mph 97 % 0.00 in
18:17 67.1 °F 66.2 °F 30.05 in SE 2.0 mph 13.0 mph 97 % 0.00 in
18:22 67.1 °F 66.2 °F 30.05 in ESE 7.0 mph 13.0 mph 97 % 0.00 in
18:27 67.1 °F 66.2 °F 30.05 in ESE 2.0 mph 11.0 mph 97 % 0.00 in
18:32 66.9 °F 66.0 °F 30.05 in SE 1.0 mph 12.0 mph 97 % 0.00 in
18:37 66.9 °F 66.0 °F 30.05 in SE 2.0 mph 12.0 mph 97 % 0.00 in
18:42 66.9 °F 66.0 °F 30.05 in ESE 7.0 mph 12.0 mph 97 % 0.01 in
18:47 66.9 °F 66.0 °F 30.06 in ESE 4.0 mph 9.0 mph 97 % 0.04 in
18:52 66.7 °F 65.8 °F 30.05 in SE 1.0 mph 10.0 mph 97 % 0.06 in
18:57 66.7 °F 65.8 °F 30.06 in SE 4.0 mph 10.0 mph 97 % 0.07 in
19:02 66.7 °F 65.8 °F 30.06 in ESE 3.0 mph 10.0 mph 97 % 0.07 in
19:07 66.7 °F 65.8 °F 30.05 in SE 3.0 mph 8.0 mph 97 % 0.08 in
19:12 66.6 °F 65.7 °F 30.06 in SE 2.0 mph 8.0 mph 97 % 0.08 in
19:17 66.6 °F 65.7 °F 30.05 in SE 4.0 mph 6.0 mph 97 % 0.09 in
19:22 66.6 °F 66.0 °F 30.05 in ESE 3.0 mph 10.0 mph 98 % 0.09 in
19:27 66.6 °F 66.0 °F 30.05 in ENE 6.0 mph 10.0 mph 98 % 0.09 in
19:32 66.6 °F 66.0 °F 30.06 in SSE 4.0 mph 10.0 mph 98 % 0.11 in
19:37 66.6 °F 66.0 °F 30.06 in SSE 3.0 mph 7.0 mph 98 % 0.14 in
19:42 66.6 °F 66.0 °F 30.06 in ESE 5.0 mph 6.0 mph 98 % 0.12 in
19:47 66.6 °F 66.0 °F 30.06 in ESE 6.0 mph 8.0 mph 98 % 0.10 in
19:52 66.6 °F 66.0 °F 30.06 in SE 6.0 mph 8.0 mph 98 % 0.11 in
19:57 66.6 °F 66.0 °F 30.06 in East 6.0 mph 8.0 mph 98 % 0.11 in
20:02 66.6 °F 66.0 °F 30.06 in ESE 4.0 mph 8.0 mph 98 % 0.12 in
20:07 66.6 °F 66.0 °F 30.06 in SE 4.0 mph 8.0 mph 98 % 0.11 in
20:12 66.6 °F 66.0 °F 30.06 in ESE 2.0 mph 7.0 mph 98 % 0.17 in
20:17 66.4 °F 65.8 °F 30.06 in SSE 2.0 mph 7.0 mph 98 % 0.23 in
20:22 66.4 °F 65.8 °F 30.06 in ESE 4.0 mph 7.0 mph 98 % 0.30 in
20:27 66.6 °F 66.0 °F 30.06 in SE 4.0 mph 10.0 mph 98 % 0.31 in
20:32 66.6 °F 66.0 °F 30.06 in SE 5.0 mph 10.0 mph 98 % 0.30 in
20:37 66.7 °F 66.2 °F 30.06 in South 5.0 mph 14.0 mph 98 % 0.27 in
20:42 66.9 °F 66.4 °F 30.06 in ESE 3.0 mph 14.0 mph 98 % 0.27 in
20:47 66.9 °F 66.4 °F 30.06 in ESE 3.0 mph 14.0 mph 98 % 0.27 in
20:53 66.9 °F 66.4 °F 30.06 in SSW 2.0 mph 13.0 mph 98 % 0.24 in
20:58 66.9 °F 66.0 °F 30.07 in SSE 2.0 mph 9.0 mph 97 % 0.23 in
21:03 66.7 °F 65.8 °F 30.07 in SE 4.0 mph 6.0 mph 97 % 0.22 in
21:08 66.7 °F 66.2 °F 30.06 in SE 6.0 mph 8.0 mph 98 % 0.22 in
21:13 66.9 °F 66.4 °F 30.07 in SE 5.0 mph 8.0 mph 98 % 0.15 in
21:18 66.9 °F 66.0 °F 30.07 in SE 7.0 mph 10.0 mph 97 % 0.08 in
21:23 67.1 °F 66.2 °F 30.07 in ESE 6.0 mph 10.0 mph 97 % 0.02 in
21:28 67.1 °F 66.2 °F 30.07 in SE 5.0 mph 10.0 mph 97 % 0.01 in
21:33 67.1 °F 66.2 °F 30.07 in South 4.0 mph 8.0 mph 97 % 0.00 in
21:38 67.3 °F 66.4 °F 30.07 in SSE 5.0 mph 9.0 mph 97 % 0.00 in
21:43 67.3 °F 66.4 °F 30.07 in SSE 3.0 mph 9.0 mph 97 % 0.00 in
21:48 67.3 °F 66.4 °F 30.07 in South 4.0 mph 10.0 mph 97 % 0.00 in
21:53 67.3 °F 66.4 °F 30.07 in SSE 4.0 mph 10.0 mph 97 % 0.00 in
21:58 67.5 °F 66.6 °F 30.07 in South 7.0 mph 10.0 mph 97 % 0.00 in
22:03 67.5 °F 66.6 °F 30.07 in SSE 6.0 mph 10.0 mph 97 % 0.00 in
22:08 67.5 °F 66.6 °F 30.07 in SE 2.0 mph 10.0 mph 97 % 0.00 in
22:13 67.6 °F 66.7 °F 30.07 in South 5.0 mph 10.0 mph 97 % 0.00 in
22:18 67.6 °F 66.7 °F 30.07 in SE 7.0 mph 10.0 mph 97 % 0.00 in
22:23 67.6 °F 66.7 °F 30.07 in SSW 5.0 mph 10.0 mph 97 % 0.00 in
22:28 67.6 °F 66.4 °F 30.07 in SSE 4.0 mph 10.0 mph 96 % 0.00 in
22:33 67.8 °F 66.6 °F 30.07 in South 5.0 mph 10.0 mph 96 % 0.00 in
22:38 67.8 °F 66.6 °F 30.07 in SE 7.0 mph 11.0 mph 96 % 0.00 in
22:43 68.0 °F 66.7 °F 30.07 in East 7.0 mph 12.0 mph 96 % 0.00 in
22:48 68.2 °F 66.9 °F 30.07 in SW 6.0 mph 12.0 mph 96 % 0.00 in
22:53 68.2 °F 66.9 °F 30.07 in South 7.0 mph 12.0 mph 96 % 0.00 in
22:58 68.4 °F 67.1 °F 30.07 in South 5.0 mph 12.0 mph 96 % 0.00 in
23:03 68.4 °F 67.1 °F 30.07 in SSE 5.0 mph 12.0 mph 96 % 0.00 in
23:08 68.4 °F 67.1 °F 30.07 in SE 6.0 mph 12.0 mph 96 % 0.00 in
23:13 68.4 °F 67.1 °F 30.07 in SE 6.0 mph 13.0 mph 96 % 0.00 in
23:18 68.5 °F 67.3 °F 30.07 in South 9.0 mph 13.0 mph 96 % 0.00 in
23:23 68.5 °F 67.3 °F 30.06 in SSE 6.0 mph 13.0 mph 96 % 0.00 in
23:28 68.5 °F 67.3 °F 30.06 in SE 6.0 mph 13.0 mph 96 % 0.00 in
23:33 68.7 °F 67.5 °F 30.06 in SE 4.0 mph 13.0 mph 96 % 0.00 in
23:38 68.7 °F 67.5 °F 30.06 in SE 2.0 mph 15.0 mph 96 % 0.00 in
23:43 68.7 °F 67.5 °F 30.06 in SE 8.0 mph 15.0 mph 96 % 0.00 in
23:48 68.9 °F 67.6 °F 30.06 in SE 4.0 mph 15.0 mph 96 % 0.00 in
23:53 68.9 °F 67.5 °F 30.06 in South 5.0 mph 12.0 mph 95 % 0.00 in
23:59 68.9 °F 67.5 °F 30.06 in SSE 5.0 mph 12.0 mph 95 % 0.00 in
Spring, Texas: Villages of Bridgestone
Compliments of Weather Underground - 2.75 mb

Script developed by  Jim McMurry - jmcmurry@mwt.net Adapted for the template by  Wim van der Kuil - Leuven-Template.eu

You find our weather info also at:

UK Metoffice

WeatherCloud

Weather Underground

Mid-South Weather Network

AWEKAS

Citizen Weather Observer Program (CWOP)

HAMweather, WeatherForYou, PWS Weather

Equipment we use:

Weather-station
Davis Vantage Vue

Weather-program
Meteohub

Weather-server
Debian 7.9 x86 (Guest)

Provider
DreamHost

Davis Vantage Vue

Meteohub

Debian 7.9 x86 (Guest)

DreamHost